Content
SEND FEEDBACK

Daily
Averages
Monthly
Summary
United States of America

KANKAKEE, ILLINOIS


Home > North America > United States > Illinois
Elevation: 625 feet     Latitude: 41 04N     Longitude: 087 50W

WEATHER
 
SELECT A DAY
Number of Records: 151,983;   Date Range: 4/11/01 - 7/20/14
 
SHARE

PRINT THIS DATA

[ ← Previous Day ]
WEATHER ALMANAC - JANUARY 31, 2013
[ Next Day → ]
[ °C ]   °F
Weather ElementAverageHighLow
Temperature15.1 °F21.2 °F (12:35 am)5 °F (11:35 pm)
Dewpoint8.5 °F15.8 °F (12:35 am)-1.3 °F (9:35 pm)
Humidity75.1 %86 % (2:55 am)68 % (2:55 pm)
Barometer29.92 in30.18 in (11:15 pm)29.69 in (12:35 am)
Wind Speed21.3 mph31.1 mph (1:55 am)
Wind Gust36.8 mph (7:55 am)
Weather ElementAverage
Visibility8.6 mi
Wind DirectionW (272.1 °)

Weather ElementTotal
Precipitation---
Heating Degree Days51.9 (Base 65)
Averaged from 70 records on January 31, 2013
WEATHER CONDITIONS BREAKOUT
WIND DIRECTION BREAKOUT
WEATHER BY HOUR - JANUARY 31, 2013
[ °C ]   °F
Local TimeTemperatureDewpointHumidityBarometerVisibilityWind DirectionWind SpeedGust SpeedPrecipitationEventsConditions
12:35 AM21.2 °F15.8 °F80 %29.69 in10.0 miWest (270°)27.6 mph33.4 mphOvercast
12:55 AM20.7 °F15.3 °F80 %29.70 in10.0 miWest (270°)23.0 mph35.7 mphOvercast
1:15 AM20.1 °F15.3 °F81 %29.71 in7.0 miWest (260°)25.3 mph31.1 mphSnowLight Snow
1:35 AM18.9 °F12.0 °F75 %29.72 in10.0 miWest (260°)25.3 mph34.5 mphSnowLight Snow
1:55 AM18.1 °F11.1 °F74 %29.73 in10.0 miWest (280°)31.1 mph35.7 mphOvercast
2:15 AM18.5 °F10.4 °F71 %29.74 in10.0 miWest (280°)27.6 mph34.5 mphOvercast
2:35 AM18.5 °F11.8 °F75 %29.74 in10.0 miWest (280°)18.4 mph29.9 mphOvercast
2:55 AM18.5 °F15.1 °F86 %29.74 in1.8 miWest (260°)21.9 mph29.9 mphSnowLight Snow
3:15 AM18.1 °F12.9 °F80 %29.75 in10.0 miWest (260°)24.2 mph31.1 mphSnowLight Snow
3:35 AM17.2 °F10.9 °F76 %29.76 in10.0 miWest (270°)23.0 mph33.4 mphOvercast
3:55 AM16.5 °F10.4 °F77 %29.77 in10.0 miWest (260°)21.9 mph33.4 mphMostly Cloudy
4:15 AM16.3 °F10.0 °F76 %29.77 in10.0 miWest (270°)20.7 mph34.5 mphScattered Clouds
4:35 AM17.2 °F10.9 °F76 %29.78 in10.0 miWest (270°)19.6 mph28.8 mphSnowLight Snow
4:55 AM17.6 °F12.4 °F80 %29.78 in10.0 miWest (270°)18.4 mph25.3 mphSnowLight Snow
5:15 AM18.1 °F13.5 °F82 %29.77 in10.0 miWest (270°)18.4 mph25.3 mphSnowLight Snow
5:35 AM18.5 °F14.2 °F83 %29.78 in10.0 miWest (270°)17.3 mph20.7 mphSnowLight Snow
5:55 AM19.0 °F14.2 °F81 %29.78 in10.0 miWest (270°)15.0 mph21.9 mphOvercast
6:15 AM19.4 °F14.5 °F81 %29.78 in10.0 miWest (270°)18.4 mph23.0 mphOvercast
6:35 AM19.9 °F14.5 °F80 %29.79 in10.0 miWest (270°)16.1 mph24.2 mphOvercast
6:55 AM19.4 °F13.8 °F79 %29.80 in10.0 miWest (270°)19.6 mph27.6 mphOvercast
7:15 AM19.4 °F14.0 °F80 %29.81 in10.0 miWest (270°)18.4 mph21.9 mphSnowLight Snow
7:35 AM19.4 °F14.9 °F83 %29.82 in4.0 miWest (270°)13.8 mph20.7 mphSnowLight Snow
7:55 AM18.5 °F10.6 °F71 %29.83 in5.0 miWest (260°)26.5 mph36.8 mphSnowLight Snow
8:15 AM17.2 °F10.2 °F74 %29.84 in10.0 miWest (260°)19.6 mph27.6 mphOvercast
8:35 AM16.0 °F9.5 °F76 %29.86 in10.0 miWest (260°)21.9 mph32.2 mphOvercast
8:55 AM16.2 °F9.1 °F74 %29.86 in10.0 miWest (260°)21.9 mph29.9 mphOvercast
9:15 AM16.5 °F9.3 °F73 %29.87 in10.0 miWest (270°)18.4 mph28.8 mphMostly Cloudy
9:35 AM17.8 °F10.4 °F73 %29.87 in10.0 miWest (270°)19.6 mphScattered Clouds
9:55 AM18.0 °F10.6 °F73 %29.88 in10.0 miWest (260°)19.6 mph25.3 mphMostly Cloudy
10:15 AM16.9 °F9.7 °F73 %29.89 in10.0 miWest (270°)23.0 mph29.9 mphMostly Cloudy
10:35 AM17.8 °F10.6 °F73 %29.90 in10.0 miWest (270°)23.0 mph28.8 mphMostly Cloudy
10:55 AM17.8 °F10.8 °F74 %29.90 in10.0 miWest (270°)21.9 mph28.8 mphOvercast
11:15 AM17.6 °F9.9 °F72 %29.91 in10.0 miWest (270°)18.4 mph26.5 mphOvercast
11:35 AM18.0 °F10.0 °F71 %29.91 in10.0 miWest (270°)19.6 mph27.6 mphOvercast
11:55 AM17.2 °F9.3 °F71 %29.91 in10.0 miWest (270°)21.9 mphOvercast
12:15 PM17.4 °F9.7 °F72 %29.92 in10.0 miWest (260°)19.6 mph25.3 mphOvercast
12:35 PM18.1 °F9.9 °F70 %29.92 in10.0 miWSW (250°)21.9 mph28.8 mphOvercast
12:55 PM17.6 °F11.8 °F78 %29.92 in3.0 miWest (270°)24.2 mph27.6 mphSnowLight Snow
1:15 PM18.9 °F10.4 °F70 %29.92 in10.0 miWest (270°)23.0 mph26.5 mphOvercast
1:35 PM18.3 °F10.0 °F70 %29.92 in10.0 miWest (270°)21.9 mph33.4 mphOvercast
1:55 PM17.4 °F11.3 °F77 %29.92 in3.0 miWest (280°)21.9 mph29.9 mphSnowLight Snow
2:15 PM16.7 °F10.9 °F78 %29.92 in4.0 miWest (280°)19.6 mph26.5 mphSnowLight Snow
2:35 PM17.2 °F10.6 °F75 %29.92 in5.0 miWest (280°)18.4 mph25.3 mphSnowLight Snow
2:55 PM15.8 °F6.8 °F68 %29.93 in10.0 miWest (270°)21.9 mph28.8 mphOvercast
3:15 PM16.0 °F8.6 °F73 %29.94 in7.0 miWest (270°)25.3 mphSnowLight Snow
3:35 PM15.4 °F8.1 °F73 %29.95 in10.0 miWest (270°)23.0 mph29.9 mphOvercast
3:55 PM15.1 °F7.0 °F70 %29.96 in10.0 miWest (270°)24.2 mph32.2 mphOvercast
4:15 PM14.9 °F7.7 °F73 %29.97 in7.0 miWest (270°)20.7 mph32.2 mphOvercast
4:35 PM14.0 °F6.4 °F72 %29.98 in10.0 miWest (270°)17.3 mph25.3 mphOvercast
4:55 PM13.8 °F6.6 °F73 %29.99 in10.0 miWest (270°)21.9 mph31.1 mphMostly Cloudy
5:15 PM12.7 °F5.0 °F71 %29.99 in10.0 miWest (280°)25.3 mph31.1 mphOvercast
5:35 PM12.2 °F5.2 °F73 %30.01 in10.0 miWest (270°)19.6 mph28.8 mphOvercast
5:55 PM12.0 °F4.5 °F72 %30.02 in10.0 miWest (270°)24.2 mph29.9 mphOvercast
6:15 PM11.7 °F4.1 °F72 %30.04 in10.0 miWest (270°)21.9 mph28.8 mphOvercast
6:35 PM11.3 °F4.1 °F73 %30.05 in10.0 miWest (280°)21.9 mph32.2 mphOvercast
6:55 PM10.8 °F3.9 °F74 %30.05 in7.0 miWNW (290°)18.4 mph32.2 mphOvercast
7:15 PM10.0 °F1.9 °F70 %30.07 in10.0 miWNW (290°)18.4 mph33.4 mphOvercast
7:35 PM10.0 °F4.3 °F78 %30.07 in5.0 miWNW (290°)23.0 mph29.9 mphSnowLight Snow
7:55 PM8.6 °F3.2 °F79 %30.08 in5.0 miWest (280°)24.2 mph32.2 mphHaze
8:15 PM8.6 °F3.2 °F79 %30.10 in7.0 miWest (280°)19.6 mph28.8 mphOvercast
8:35 PM8.6 °F3.4 °F79 %30.10 in3.0 miWNW (290°)24.2 mph28.8 mphSnowLight Snow
8:55 PM8.1 °F0.1 °F70 %30.12 in10.0 miWest (280°)23.0 mph29.9 mphOvercast
9:15 PM7.5 °F1.0 °F75 %30.12 in5.0 miWest (280°)21.9 mph29.9 mphHaze
9:35 PM6.6 °F-1.3 °F70 %30.13 in10.0 miWest (280°)18.4 mph28.8 mphOvercast
9:55 PM6.6 °F-0.8 °F72 %30.14 in10.0 miWest (280°)21.9 mph27.6 mphOvercast
10:15 PM6.1 °F-0.4 °F75 %30.15 in5.0 miWest (280°)18.4 mph28.8 mphHaze
10:35 PM5.9 °F-0.2 °F76 %30.16 in5.0 miWest (280°)21.9 mph28.8 mphHaze
10:55 PM6.8 °F-0.4 °F72 %30.17 in7.0 miWNW (290°)19.6 mph29.9 mphOvercast
11:15 PM5.5 °F-0.6 °F76 %30.18 in7.0 miWest (280°)19.6 mph25.3 mphOvercast
11:35 PM5.0 °F-1.3 °F75 %30.18 in10.0 miWest (280°)19.6 mph26.5 mphOvercast
Hourly data recorded from KIKK, located miles away from Kankakee, Illinois







STORIES FROM OUR PARTNERS